Quillayute, WA

2:00 AM PDT on July 23, 2017 (GMT -0700)
Quillayute

Weather History for KUIL - March, 2013

Change the Weather History Date:

Thursday, March 21, 2013

  Actual Average Record
Temperature  
Mean Temperature 41 °F 45 °F  
Max Temperature 47 °F 52 °F 69 °F (1992)
Min Temperature 34 °F 37 °F 24 °F (1971)
Degree Days  
Heating Degree Days 24 20  
Month to date heating degree days 433 448  
Since 1 July heating degree days 4126 4293  
Cooling Degree Days 0 0  
Month to date cooling degree days 0 0  
Year to date cooling degree days 0 0  
Moisture  
Dew Point 34 °F    
Average Humidity 75    
Maximum Humidity 89    
Minimum Humidity 60    
Precipitation  
Precipitation 0.15 in 0.34 in 2.25 in (2003)
Month to date precipitation 15.82 7.49  
Year to date precipitation 37.93 32.45  
Sea Level Pressure  
Sea Level Pressure 30.18 in    
Wind  
Wind Speed 5 mph (West)    
Max Wind Speed 15 mph    
Max Gust Speed 23 mph    
Visibility 4 miles    
Events Rain    
T = Trace of Precipitation, MM = Missing Value Source: NWS Daily Summary

Daily Weather History Graph

Daily Weather History Graph

Search for Another Location

Airport or City:

Trip Planner

Search our weather history database for the weather conditions in past years. The results will help you decide how hot, cold, wet, or windy it might be!

Date:

Astronomy

Mar. 21, 2013 Rise Set
Actual Time 7:18 AM PDT 7:33 PM PDT
Civil Twilight 6:47 AM PDT 8:04 PM PDT
Nautical Twilight 6:10 AM PDT 8:40 PM PDT
Astronomical Twilight 5:33 AM PDT 9:18 PM PDT
Moon 1:47 PM PDT (3/21) 4:05 AM PDT (3/21)
Length of Visible Light 13h 16m
Length of Day
12h 14m
Waxing Gibbous, 69% of the Moon is Illuminated
Mar 21
Waxing Gibbous
Mar 27
Full
Apr 2
Last Quarter
Apr 10
New
Apr 18
First Quarter

Hourly Weather History & Observations

Time (PDT) Temp. Windchill Dew Point Humidity Pressure Visibility Wind Dir Wind Speed Gust Speed Precip Events Conditions
12:53 AM 35.1 °F - 30.9 °F 85% 30.05 in 4.0 mi Calm Calm - 0.00 in   Scattered Clouds
1:53 AM 37.9 °F 35.5 °F 33.1 °F 83% 30.08 in 5.0 mi West 3.5 mph - 0.00 in   Haze
2:46 AM 37.4 °F - 33.8 °F 87% 30.08 in 2.0 mi Calm Calm - 0.02 in Rain Rain
2:53 AM 37.9 °F 35.5 °F 33.1 °F 83% 30.09 in 3.0 mi Variable 3.5 mph - 0.03 in Rain Light Rain
3:53 AM 35.1 °F - 30.0 °F 82% 30.10 in 4.0 mi Calm Calm - 0.00 in   Haze
4:53 AM 34.0 °F - 30.9 °F 89% 30.11 in 4.0 mi Calm Calm - N/A   Overcast
5:11 AM 37.4 °F - 33.8 °F 87% 30.11 in 2.5 mi Calm Calm - 0.00 in Rain Light Rain
5:19 AM 37.4 °F - 33.8 °F 87% 30.11 in 5.0 mi Calm Calm - 0.00 in Rain Light Rain
5:53 AM 35.1 °F 32.2 °F 32.0 °F 89% 30.12 in 4.0 mi East 3.5 mph - 0.00 in   Mostly Cloudy
6:46 AM 35.6 °F - 30.2 °F 81% 30.13 in 4.0 mi Calm Calm - N/A   Overcast
6:53 AM 35.1 °F 32.2 °F 30.9 °F 85% 30.14 in 4.0 mi NE 3.5 mph - N/A   Mostly Cloudy
7:53 AM 35.1 °F - 30.9 °F 85% 30.14 in 3.0 mi Calm Calm - 0.00 in   Scattered Clouds
8:53 AM 39.9 °F 36.7 °F 34.0 °F 79% 30.16 in 4.0 mi WSW 4.6 mph - N/A   Haze
9:53 AM 44.1 °F - 34.0 °F 68% 30.17 in 4.0 mi Calm Calm - N/A   Haze
10:13 AM 41.0 °F 34.7 °F 33.8 °F 76% 30.18 in 2.0 mi West 10.4 mph 19.6 mph 0.00 in Rain Light Rain
10:20 AM 39.2 °F 35.0 °F 33.8 °F 81% 30.18 in 2.0 mi West 5.8 mph - 0.01 in Rain Light Rain
10:28 AM 42.8 °F 38.6 °F 35.6 °F 76% 30.18 in 4.0 mi WSW 6.9 mph - 0.01 in   Haze
10:53 AM 45.0 °F 41.8 °F 35.1 °F 68% 30.19 in 4.0 mi WSW 5.8 mph - 0.01 in   Haze
11:03 AM 44.6 °F 38.8 °F 33.8 °F 66% 30.19 in 4.0 mi West 11.5 mph 17.3 mph N/A   Haze
11:13 AM 44.6 °F 40.2 °F 33.8 °F 66% 30.19 in 4.0 mi WNW 8.1 mph 18.4 mph N/A   Haze
11:28 AM 44.6 °F 38.8 °F 33.8 °F 66% 30.19 in 4.0 mi West 11.5 mph 18.4 mph N/A   Haze
11:35 AM 44.6 °F 39.2 °F 35.6 °F 71% 30.19 in 4.0 mi West 10.4 mph 19.6 mph N/A   Haze
11:53 AM 46.9 °F - 33.1 °F 59% 30.20 in 4.0 mi West 10.4 mph - N/A   Haze
12:37 PM 42.8 °F 36.6 °F 32.0 °F 66% 30.20 in 2.5 mi NW 11.5 mph - 0.00 in Rain Light Rain
12:39 PM 41.0 °F 33.9 °F 32.0 °F 70% 30.20 in 1.8 mi WNW 12.7 mph - 0.01 in Rain Light Rain
12:53 PM 39.9 °F 36.7 °F 33.1 °F 77% 30.21 in 1.8 mi SW 4.6 mph - 0.03 in Rain Light Rain
12:57 PM 39.2 °F 35.9 °F 35.6 °F 87% 30.20 in 3.0 mi SSW 4.6 mph - 0.00 in Rain Light Rain
1:26 PM 42.8 °F 40.1 °F 37.4 °F 81% 30.20 in 4.0 mi Variable 4.6 mph - 0.00 in   Haze
1:32 PM 41.0 °F 39.0 °F 35.6 °F 81% 30.20 in 2.5 mi Variable 3.5 mph - 0.00 in Rain Light Rain
1:42 PM 41.0 °F 37.1 °F 35.6 °F 81% 30.20 in 1.5 mi West 5.8 mph 16.1 mph 0.01 in Rain Light Rain
1:49 PM 42.8 °F 39.3 °F 35.6 °F 76% 30.20 in 3.0 mi WNW 5.8 mph - 0.01 in Rain Light Rain
1:53 PM 43.0 °F 40.3 °F 37.0 °F 80% 30.20 in 4.0 mi West 4.6 mph - 0.01 in   Haze
2:10 PM 42.8 °F 37.5 °F 37.4 °F 81% 30.20 in 1.8 mi WNW 9.2 mph 23.0 mph 0.00 in Rain Light Rain
2:24 PM 37.4 °F 30.3 °F 33.8 °F 87% 30.20 in 1.0 mi WNW 10.4 mph 19.6 mph 0.03 in Rain Rain
2:34 PM 39.2 °F 33.6 °F 35.6 °F 87% 30.20 in 2.0 mi WNW 8.1 mph - 0.05 in Rain Light Rain
2:43 PM 42.8 °F 39.3 °F 37.4 °F 81% 30.20 in 4.0 mi Variable 5.8 mph - 0.05 in   Haze
2:53 PM 42.1 °F 40.2 °F 37.0 °F 82% 30.21 in 4.0 mi Variable 3.5 mph - 0.05 in   Haze
3:00 PM 41.0 °F 36.4 °F 35.6 °F 81% 30.20 in 4.0 mi West 6.9 mph - N/A   Haze
3:17 PM 41.0 °F 37.1 °F 35.6 °F 81% 30.20 in 2.5 mi WNW 5.8 mph - 0.00 in Rain Light Rain
3:31 PM 42.8 °F 38.6 °F 37.4 °F 81% 30.20 in 4.0 mi West 6.9 mph - 0.00 in Rain Light Rain
3:53 PM 43.0 °F 37.2 °F 37.0 °F 80% 30.21 in 4.0 mi West 10.4 mph - 0.00 in   Haze
4:53 PM 43.0 °F 37.7 °F 34.0 °F 71% 30.22 in 4.0 mi WNW 9.2 mph 17.3 mph N/A   Haze
5:02 PM 42.8 °F 39.3 °F 35.6 °F 76% 30.22 in 4.0 mi NW 5.8 mph - N/A   Haze
5:21 PM 41.0 °F 33.9 °F 33.8 °F 76% 30.22 in 1.8 mi WNW 12.7 mph 23.0 mph 0.00 in Rain Light Rain
5:33 PM 41.0 °F 39.0 °F 35.6 °F 81% 30.21 in 2.5 mi West 3.5 mph - 0.02 in Rain Light Rain
5:40 PM 42.8 °F 38.6 °F 35.6 °F 76% 30.21 in 4.0 mi West 6.9 mph - 0.02 in   Haze
5:53 PM 41.0 °F 37.1 °F 34.0 °F 76% 30.22 in 4.0 mi West 5.8 mph - 0.02 in   Haze
6:53 PM 41.0 °F - 33.1 °F 73% 30.22 in 4.0 mi Calm Calm - N/A   Haze
7:16 PM 39.2 °F 37.0 °F 33.8 °F 81% 30.22 in 4.0 mi West 3.5 mph - N/A   Haze
7:53 PM 39.9 °F 35.1 °F 33.1 °F 77% 30.22 in 5.0 mi WNW 6.9 mph - N/A   Haze
8:53 PM 39.0 °F 33.4 °F 30.9 °F 73% 30.23 in 5.0 mi WNW 8.1 mph - 0.00 in   Haze
9:53 PM 39.2 °F 35.0 °F 30.2 °F 70% 30.23 in 5.0 mi NW 5.8 mph 16.1 mph N/A   Haze
10:53 PM 39.9 °F 34.5 °F 30.0 °F 68% 30.25 in 5.0 mi WNW 8.1 mph - N/A   Haze
11:53 PM 39.9 °F 35.1 °F 30.0 °F 68% 30.25 in 5.0 mi NW 6.9 mph - N/A   Haze